Location: Unspecified
(0.0000°N, 0.0000°E)
Time: 11:38:10
(UTC+00:00)

Vanguard 2 Rocket - Visible Passes

Search period start: 18 April 2015 00:00
Search period end: 28 April 2015 00:00
Orbit: 555 x 3332 km, 32.9° (Epoch: 17 April)

Date Brightness Start Highest point End Pass type
(mag) Time Alt. Az. Time Alt. Az. Time Alt. Az.
18 Apr 10.2 02:08:55 12° NNW 02:17:21 19° NNE 02:24:38 10° NE visible
18 Apr 8.5 04:24:46 10° NW 04:35:15 45° NNE 04:41:23 10° E visible
18 Apr 9.5 17:56:27 10° WSW 18:08:49 74° NNW 18:28:23 10° NE visible
18 Apr 10.5 20:14:01 10° W 20:29:01 34° NNW 20:46:10 10° NE visible
18 Apr 10.8 22:39:47 10° NW 22:52:30 19° N 23:03:37 10° NNE visible
19 Apr 10.5 01:05:38 10° NNW 01:15:55 18° N 01:24:07 10° NE visible
19 Apr 9.2 03:24:00 10° NW 03:35:28 34° NNE 03:42:35 10° E visible
19 Apr 10.2 19:13:08 10° W 19:26:57 43° NNW 19:45:17 10° NE visible
19 Apr 10.8 21:35:44 10° WNW 21:49:35 22° NNW 22:02:53 10° NNE visible
20 Apr 10.7 00:02:46 10° NNW 00:13:48 17° N 00:23:05 10° NE visible
20 Apr 9.8 02:27:19 18° NNW 02:35:02 28° NNE 02:43:14 10° ENE visible
20 Apr 7.7 04:40:29 10° NW 04:51:49 77° NNE 04:58:02 10° ESE visible
20 Apr 9.9 18:13:13 10° WSW 18:25:27 53° NNW 18:44:04 10° NE visible
20 Apr 10.7 20:32:50 10° WNW 20:46:48 26° NNW 21:01:56 10° NNE visible
20 Apr 10.8 22:59:13 10° NW 23:11:06 18° N 23:17:54 14° NNE visible
21 Apr 10.2 01:21:22 10° NNW 01:34:00 24° NNE 01:43:12 10° ENE visible
21 Apr 8.5 03:40:04 12° NW 03:52:24 54° NNE 03:59:44 10° ESE visible
21 Apr 10.5 19:31:11 10° W 19:44:24 31° NNW 20:00:49 10° NE visible
21 Apr 10.9 21:55:32 10° NW 22:08:06 19° N 22:20:03 10° NNE visible
22 Apr 10.6 00:19:26 10° NNW 00:40:38 13° NE 00:42:25 10° NE visible
22 Apr 9.2 02:46:42 30° NNW 02:52:19 42° NNE 03:00:55 10° E visible
22 Apr 7.6 04:56:47 10° WNW 05:07:54 62° SW 05:14:06 10° SE visible
22 Apr 10.3 18:30:36 10° W 18:42:34 38° NNW 18:59:32 10° NE visible
22 Apr 10.9 20:52:19 10° NW 21:05:04 21° N 21:18:21 10° NNE visible
22 Apr 10.7 23:17:05 10° NNW 23:29:42 20° N 23:31:25 19° NNE visible
23 Apr 9.7 01:36:44 10° NW 01:53:11 33° NNE 02:01:29 10° E visible
23 Apr 7.9 03:59:13 21° NW 04:08:50 86° NNE 04:16:12 10° ESE visible
23 Apr 10.8 19:50:02 10° WNW 20:02:20 24° NNW 20:16:40 10° NNE visible
23 Apr 10.8 22:14:26 10° NW 22:26:46 19° N 22:35:13 14° NNE visible
24 Apr 10.4 00:35:13 10° NNW 00:59:30 15° ENE 01:01:17 10° ENE visible
24 Apr 8.6 03:05:31 49° NNW 03:09:09 63° NNE 03:17:51 10° ESE visible
24 Apr 8.2 05:13:54 10° WNW 05:23:44 36° SW 05:29:36 10° SSE visible
24 Apr 10.6 18:48:46 10° WNW 19:00:08 28° NNW 19:15:02 10° NNE visible
24 Apr 10.9 21:11:46 10° NW 21:23:39 19° N 21:35:55 10° NE visible
24 Apr 10.6 23:33:35 10° NNW 23:44:48 23° N 23:44:48 23° N visible
25 Apr 9.3 02:11:39 44° ENE 02:11:39 44° ENE 02:18:57 10° E visible
25 Apr 8.0 04:17:40 27° WNW 04:24:51 60° SW 04:32:09 10° SE visible
25 Apr 10.9 20:09:25 10° NW 20:20:40 19° N 20:33:16 10° NNE visible
25 Apr 10.6 22:31:54 10° NNW 22:45:20 21° N 22:48:35 21° NNE visible
26 Apr 10.3 00:50:41 10° NW 01:17:37 16° E 01:19:21 10° E visible
26 Apr 8.2 03:23:37 70° WNW 03:25:28 88° SW 03:34:12 10° SE visible
26 Apr 8.8 05:32:10 10° W 05:39:35 21° SW 05:44:28 10° S visible
26 Apr 10.8 19:07:42 10° NW 19:18:08 21° N 19:30:53 10° NNE visible
26 Apr 10.8 21:30:11 10° NNW 21:42:19 19° N 21:52:22 13° NE visible
26 Apr 10.6 23:49:21 10° NW 23:58:10 25° NNW 23:58:10 25° NNW visible
27 Apr 9.0 02:29:23 49° E 02:29:23 49° E 02:35:43 10° ESE visible
27 Apr 8.5 04:35:21 26° W 04:40:40 37° SW 04:47:37 10° SSE visible
27 Apr 10.6 18:06:47 10° WNW 18:16:14 24° NNW 18:28:54 10° NNE visible
27 Apr 10.9 20:28:30 10° NW 20:39:15 18° N 20:51:16 10° NE visible
27 Apr 10.5 22:48:11 10° NNW 23:01:57 26° N 23:01:57 26° N visible
